www.pogodaiklimat.ru

Погода и климат >> Архив погоды >> Ирак >> Ubaydah Bin Al Jarrah


ПОГОДА в Ubaydah Bin Al Jarrah

  • Прогноз погоды в Ubaydah Bin Al Jarrah
  • Монитор погоды в Ubaydah Bin Al Jarrah
  • Климат города

АРХИВ ПОГОДЫ в Ubaydah Bin Al Jarrah

Время (UTC), дата Ветер
(напр.,м/с)
 
Видим.   Явления Облачность Т
(С)
Тd
(С)
f
(%)
Тe
(С)
Тes
(С)
Комфортность P
(гПа)
Po
(гПа)
Тmin
(С)
Tmax
(С)
R
(мм)
R24
(мм)
S
(см)
09 13.06 С 3 10 км ясно +39.6 +10.4 17 +38 +56 опасность
солнечного
удара
999.5 1000.0
15 13.06 штиль 0 10 км ясно +40.4 +11.9 18 +39 +41 очень
жарко
998.6 999.0
18 13.06 штиль 0 10 км ясно +36.0 +11.6 23 +36 +36 очень
жарко
997.6 998.0 +42.0
21 13.06 СВ 2 10 км ясно +32.4 +9.9 25 +32 +32 жарко 997.8 998.0
00 14.06 ЮВ 2 10 км ясно +30.6 +10.3 28 +30 +30 жарко 997.8 998.0
03 14.06 штиль 0 6000 м пыль ясно +27.8 +12.8 40 +29 +31 жарко 997.8 998.0
06 14.06 Ю 2 1000 м пыль ясно +34.6 +14.2 29 +36 +49 душно 998.2 998.0 +27.3
09 14.06 Ю 6 3000 м пыль ясно +37.0 +13.7 25 +37 +46 очень
жарко
999.4 999.0
12 14.06 З 8 3000 м пыльный позёмок ясно +40.2 +11.0 18 +39 +42 очень
жарко
999.0 999.0
15 14.06 З 6 6000 м пыль ясно +39.4 +10.6 18 +38 +39 очень
жарко
999.5 1000.0
18 14.06 штиль 0 8000 м пыль ясно +34.0 +13.7 29 +35 +35 очень
жарко
1001.2 1001.0 +40.5
21 14.06 штиль 0 10 км ясно +30.2 +14.0 37 +32 +32 жарко 1002.1 1002.0
00 15.06 штиль 0 10 км ясно +28.6 +12.6 37 +30 +30 жарко 1002.0 1002.0
03 15.06 СЗ 2 10 км ясно +27.6 +13.9 43 +30 +31 жарко 1002.4 1002.0
06 15.06 СЗ 4 10 км ясно +35.0 +14.3 29 +36 +45 очень
жарко
1003.4 1003.0 +26.5
09 15.06 СЗ 4 10 км 1/1 1050 м
[Cu hum]
+39.0 +13.1 22 +39 +52 опасность
солнечного
удара
1003.7 1004.0
12 15.06 З 6 10 км ясно +40.2 +8.6 15 +38 +43 очень
жарко
1003.1 1003.0
15 15.06 СЗ 6 10 км ясно +38.0 +7.8 16 +36 +36 очень
жарко
1002.8 1003.0
21 15.06 С 2 10 км ясно +30.8 +12.1 32 +31 +31 жарко 1003.3 1003.0
00 16.06 СЗ 2 10 км ясно +28.2 +13.2 40 +30 +30 жарко 1003.0 1003.0
03 16.06 штиль 0 10 км ясно +27.6 +13.4 42 +29 +31 жарко 1003.6 1004.0
21 16.06 СЗ 2 10 км ясно +31.2 +8.1 24 +30 +30 жарко 1003.9 1004.0
00 17.06 З 2 10 км ясно +29.0 +8.2 27 +28 +28 жарко 1003.7 1004.0
06 17.06 С 4 10 км ясно +36.8 +8.5 18 +35 +44 очень
жарко
1003.7 1004.0 +26.0
09 17.06 СЗ 6 10 км ясно +40.5 +8.3 14 +38 +47 очень
жарко
1003.3 1003.0
12 17.06 СЗ 6 10 км ясно +41.8 +8.2 13 +40 +45 очень
жарко
1002.8 1003.0
15 17.06 СЗ 5 10 км ясно +41.0 +7.7 13 +39 +39 очень
жарко
1001.7 1002.0
18 17.06 СЗ 3 10 км ясно +35.0 +9.8 22 +34 +34 очень
жарко
1002.2 1002.0 +42.4
21 17.06 СЗ 3 10 км ясно +30.8 +11.1 30 +31 +31 жарко 1001.9 1002.0
00 18.06 СЗ 3 10 км ясно +28.8 +12.9 38 +30 +30 жарко 1001.7 1002.0
03 18.06 З 3 10 км ясно +28.0 +11.3 35 +29 +30 жарко 1002.9 1003.0
06 18.06 штиль 0 10 км ясно +37.0 +13.7 25 +37 +55 опасность
солнечного
удара
1003.1 1003.0 +26.4
09 18.06 З 5 10 км ясно +41.2 +11.2 17 +40 +52 опасность
солнечного
удара
1001.6 1002.0
12 18.06 З 6 10 км ясно +41.8 +10.1 15 +40 +45 очень
жарко
1001.1 1001.0
15 18.06 З 6 10 км ясно +40.0 +4.7 12 +37 +38 очень
жарко
1001.2 1001.0
18 18.06 СЗ 5 10 км ясно +34.6 +10.2 23 +34 +34 очень
жарко
1002.2 1002.0 +42.4
21 18.06 СЗ 3 10 км ясно +30.4 +10.5 29 +30 +30 жарко 1003.0 1003.0
00 19.06 СЗ 5 10 км ясно +28.0 +8.2 29 +28 +28 жарко 1003.5 1004.0
03 19.06 СЗ 2 10 км ясно +27.4 +9.8 33 +28 +29 жарко 1003.6 1004.0
06 19.06 С 6 10 км ясно +35.6 +10.3 22 +35 +40 очень
жарко
1004.6 1005.0 +25.8
09 19.06 СЗ 6 10 км ясно +38.6 +9.6 17 +37 +45 очень
жарко
1004.5 1005.0
12 19.06 СЗ 6 8000 м пыль ясно +39.9 +8.3 15 +38 +43 очень
жарко
1004.4 1004.0
15 19.06 СЗ 5 10 км ясно +39.2 +7.8 15 +37 +38 очень
жарко
1003.7 1004.0
18 19.06 З 3 10 км ясно +34.4 +11.4 25 +34 +34 очень
жарко
1004.7 1005.0 +40.2
21 19.06 СЗ 3 10 км ясно +29.8 +10.1 29 +30 +30 жарко 1005.4 1005.0
00 20.06 С 3 10 км ясно +28.4 +9.4 30 +28 +28 жарко 1005.1 1005.0
03 20.06 СЗ 2 10 км ясно +26.6 +9.6 34 +27 +28 жарко 1005.2 1005.0
06 20.06 СЗ 4 10 км ясно +36.6 +8.1 18 +35 +44 очень
жарко
1005.9 1006.0 +25.5

 

Местоположение метеостанции Ubaydah Bin Al Jarrah (Ирак): широта 32.49 долгота 45.75 высота над уровнем моря 21 м.

В архиве по умолчанию представлена погода в Ubaydah Bin Al Jarrah за последнюю неделю. Архивные данные за месяц целиком и за предыдущие месяцы, начиная с января 2011 года, Вы можете получить, выбрав интересующий диапазон дат из раскрывающегося списка и нажав кнопку "Ввод!".


*Определитесь, кто Вы:
робот инопланетянин человек

Внимание! Время в таблицах - всемирное. Для получения местного времени необходимо прибавить поправку, которая в Ubaydah Bin Al Jarrah равна 3 ч.

Смотрите также архив погоды в соседних городах и на ближайших метеорологических станциях:

Погода в Kut-Al-Hai (Ирак) (45 км)
Погода в Badrah (Ирак) (70 км)
Погода в Azizyah (Ирак) (80 км)
Погода в Ali Al-Gharbi (Ирак) (91 км)
Погода в Rifai (Ирак) (92 км)
Погода в Diwaniya (Ирак) (92 км)
Погода в Hella (Ирак) (122 км)
Погода в Samawah (Ирак) (140 км)
Погода в Ilam (Иран) (142 км)
Погода в Najaf (Ирак) (146 км)

Пояснения к столбцам:

Ветер - указаны скорость ветра в м/с - средняя за 10 мин, порывы в срок и между сроками (в фигурных скобках) и направление, откуда дует ветер: С - северный, СВ - северо-восточный, В - восточный, ЮВ - юго-восточный, Ю - южный, ЮЗ - юго-западный, З - западный, СЗ - северо-западный.
Видимость - горизонтальная дальность видимости в метрах или километрах. При видимости от 1 до 10 км при отсутствии осадков обычно наблюдается дымка, при ухудшении видимости до 1 км и менее - туман. В сухую погоду видимость может ухудшаться дымом, пылью или мглою.
Явления - указаны атмосферные явления, наблюдавшиеся в срок или в последний час перед сроком; фигурными скобками обозначены явления, наблюдавшиеся между сроками (за 1-3 часа до срока); квадратными скобками обозначены град или гололедные отложения с указанием их диаметра в мм.
Облачность - указаны через наклонную черту общая и нижняя облачность в баллах и высота нижней границы облаков в метрах; квадратными скобками обозначены формы облаков: Ci - перистые, Cs - перисто-слоистые, Cc - перисто-кучевые, Ac - высококучевые, As - высокослоистые, Sc - слоисто-кучевые, Ns - слоисто-дождевые, Cu - кучевые, Cb - кучево-дождевые. Подробнее классификацию облаков см. в Атласе облаков (PDF).
T - Температура воздуха - температура, измеренная на высоте 2 м над землей.
Td - Температура точки росы - температура, при понижении до которой содержащийся в воздухе водяной пар достигнет насыщения.
f - Относительная влажность воздуха - влажноcть воздуха, измеренная на высоте 2 м над землей.
Te - Эффективная температура - температура, которую ощущает одетый по сезону человек в тени. Характеристика душности погоды. При расчете учитывается влияние влажности воздуха и скорости ветра на теплоощущения человека.
Tes - Эффективная температура на солнце - температура, которую ощущает человек, с поправкой на солнечный нагрев. Характеристика знойности погоды. Зависит от высоты солнца над горизонтом, облачности и скорости ветра. Ночью, в пасмурную погоду, а также при ветре 12 м/с и более поправка равна нулю.
P - Атмосферное давление - приведенное к уровню моря атмосферное давление.
Po - Атмосферное давление - измеренное на уровне метеостанции атмосферное давление.
Tmin - Минимальная температура - минимум температуры воздуха на высоте 2 м над землей.
Tmax - Максимальная температура - максимум температуры воздуха на высоте 2 м над землей.
R - Количество осадков - Количество выпавших осадков за период времени, мм. При наведении курсора мыши на число - период времени, за который выпало указанное количество осадков.
R24 - Количество осадков - Количество выпавших осадков за 24 часа, мм.
S - Снежный покров - Высота снежного покрова, см. При наведении курсора мыши на число - состояние снежного покрова и степень покрытия местности в баллах.